Weather History for Tacoma Narrows, WA

Change the Weather History Date:

Friday, March 1, 2013

  Actual Average Record
Temperature  
Mean Temperature 53 °F -  
Max Temperature 55 °F 47 °F 59 °F (2005)
Min Temperature 50 °F 36 °F 32 °F (2002)
Degree Days  
Heating Degree Days 12    
Growing Degree Days 3 (Base 50)    
Moisture  
Dew Point 48 °F    
Average Humidity 84    
Maximum Humidity 92    
Minimum Humidity 72    
Precipitation  
Precipitation 0.02 in - - ()
Sea Level Pressure  
Sea Level Pressure 30.34 in    
Wind  
Wind Speed 15 mph (South)    
Max Wind Speed 21 mph    
Max Gust Speed 29 mph    
Visibility 10 miles    
Events Rain    
Averages and records for this station are not official NWS values.
T = Trace of Precipitation, MM = Missing Value Source: NWS Daily Summary

Daily Weather History Graph

Daily Weather History Graph

Search for Another Location

Airport:

Trip Planner

Search our weather history database for the weather conditions in past years. The results will help you decide how hot, cold, wet, or windy it might be!

Date:

Astronomy

Mar. 01, 2013 Rise Set
Actual Time 6:49 AM PST 5:56 PM PST
Civil Twilight 6:19 AM PST 6:26 PM PST
Nautical Twilight 5:43 AM PST 7:02 PM PST
Astronomical Twilight 5:08 AM PST 7:37 PM PST
Moon 10:58 PM PST (3/1) 8:19 AM PST (3/1)
Length of Visible Light 12h 07m
Length of Day
11h 06m
Waning Gibbous, 82% of the Moon is Illuminated
Mar 1
Waning Gibbous
Mar 4
Last Quarter
Mar 11
New
Mar 19
First Quarter
Mar 27
Full

Hourly Weather History & Observations

Time (PST) Temp. Dew Point Humidity Pressure Visibility Wind Dir Wind Speed Gust Speed Precip Events Conditions
12:44 AM 51.8 °F 48.2 °F 88% 30.32 in 10.0 mi South 16.1 mph - 0.00 in   Overcast
12:53 AM 51.8 °F 48.2 °F 88% 30.32 in 10.0 mi South 16.1 mph 25.3 mph N/A   Overcast
1:09 AM 51.8 °F 48.2 °F 88% 30.33 in 6.0 mi South 19.6 mph 25.3 mph N/A   Overcast
1:53 AM 51.1 °F 48.9 °F 92% 30.34 in 6.0 mi South 19.6 mph 25.3 mph 0.01 in Rain Light Rain
2:01 AM 51.8 °F 48.2 °F 88% 30.34 in 9.0 mi South 20.7 mph 28.8 mph 0.00 in   Overcast
2:53 AM 52.0 °F 48.0 °F 86% 30.34 in 10.0 mi South 17.3 mph 25.3 mph 0.00 in   Overcast
3:16 AM 51.8 °F 48.2 °F 88% 30.33 in 10.0 mi South 16.1 mph 24.2 mph N/A   Overcast
3:27 AM 51.8 °F 48.2 °F 88% 30.33 in 10.0 mi South 15.0 mph 23.0 mph N/A   Overcast
3:53 AM 51.8 °F 48.2 °F 88% 30.33 in 10.0 mi South 15.0 mph - N/A   Overcast
4:39 AM 51.8 °F 48.2 °F 88% 30.33 in 10.0 mi South 13.8 mph - N/A   Overcast
4:53 AM 52.0 °F 48.0 °F 86% 30.33 in 10.0 mi South 15.0 mph - N/A   Overcast
5:14 AM 51.8 °F 48.2 °F 88% 30.33 in 10.0 mi South 13.8 mph - N/A   Overcast
5:25 AM 51.8 °F 48.2 °F 88% 30.33 in 10.0 mi South 15.0 mph 20.7 mph N/A   Overcast
5:53 AM 51.1 °F 48.0 °F 89% 30.34 in 10.0 mi South 13.8 mph - N/A   Overcast
6:53 AM 52.0 °F 46.9 °F 83% 30.35 in 10.0 mi South 15.0 mph - N/A   Overcast
7:27 AM 51.8 °F 46.4 °F 82% 30.35 in 10.0 mi South 12.7 mph - N/A   Overcast
7:53 AM 52.0 °F 46.9 °F 83% 30.36 in 10.0 mi SSW 16.1 mph 24.2 mph N/A   Overcast
8:16 AM 51.8 °F 46.4 °F 82% 30.36 in 10.0 mi SSW 12.7 mph 18.4 mph N/A   Overcast
8:53 AM 52.0 °F 48.0 °F 86% 30.38 in 10.0 mi SSW 13.8 mph - N/A   Overcast
9:21 AM 51.8 °F 48.2 °F 88% 30.38 in 10.0 mi SSW 9.2 mph 20.7 mph N/A   Overcast
9:49 AM 51.8 °F 48.2 °F 88% 30.37 in 10.0 mi South 17.3 mph - N/A   Overcast
9:53 AM 52.0 °F 48.0 °F 86% 30.38 in 10.0 mi South 16.1 mph - N/A   Overcast
10:53 AM 53.1 °F 48.9 °F 86% 30.38 in 10.0 mi South 15.0 mph 21.9 mph N/A   Overcast
11:53 AM 55.0 °F 48.9 °F 80% 30.37 in 10.0 mi South 15.0 mph 20.7 mph N/A   Overcast
12:53 PM 55.9 °F 48.0 °F 75% 30.36 in 10.0 mi South 17.3 mph 24.2 mph N/A   Overcast
1:53 PM 55.9 °F 46.9 °F 72% 30.35 in 10.0 mi South 13.8 mph - N/A   Overcast
2:53 PM 55.9 °F 48.0 °F 75% 30.34 in 10.0 mi South 13.8 mph - N/A   Overcast
3:53 PM 54.0 °F 48.0 °F 80% 30.34 in 10.0 mi SSW 9.2 mph - N/A   Overcast
4:53 PM 54.0 °F 48.9 °F 83% 30.33 in 10.0 mi SSW 5.8 mph - 0.01 in   Overcast
5:53 PM 54.0 °F 48.0 °F 80% 30.33 in 10.0 mi SW 8.1 mph - N/A   Overcast
6:53 PM 54.0 °F 48.0 °F 80% 30.32 in 10.0 mi SSW 5.8 mph - N/A   Overcast
7:53 PM 53.1 °F 46.9 °F 80% 30.31 in 10.0 mi SSE 6.9 mph - N/A   Overcast
8:53 PM 52.0 °F 46.9 °F 83% 30.32 in 10.0 mi Calm Calm - N/A   Overcast
9:53 PM 52.0 °F 46.0 °F 80% 30.32 in 10.0 mi SSW 4.6 mph - N/A   Mostly Cloudy
10:53 PM 52.0 °F 46.9 °F 83% 30.31 in 10.0 mi SSW 4.6 mph - N/A   Mostly Cloudy
11:53 PM 50.0 °F 46.9 °F 89% 30.29 in 10.0 mi SSE 4.6 mph - N/A   Overcast